Temp
27 26 26 26 26 25 25 25 25 26 26 26 26 26 26 26 26 27 26 26 26 26 26 26 26 26 26 26 26 26 25 25 25 25 25 25 25 25 25 25 25 25 25 26 26 26 25 25 26 26 26 26 27 27 27 27 27 27 27 27 27 27 27 27 27 28 28 28 28 28 28 28 28 27 27 27 27 27 27 27 27 27 27 28 28
27 26 26 26 26 26 26 26 25 26 26 26 26 26 26 26 26 26 27 26 26 26 26 26 26 26 26 26 26 26 25 25 25 26 25 25 25 25 26 25 25 25 25 25 25 26 26 25 26 26 26 26 26 27 27 28 28 28 28 28 28 28 27 27 27 27 28 28 28 28 28 27 28 27 27 27 27 26 26 27 27 28 27 27 28
28 27 26 26 26 26 26 26 26 26 26 27 27 27 27 26 26 26 26 27 26 26 26 26 26 26 26 26 26 26 26 25 26 26 26 25 25 26 26 26 25 26 26 26 26 26 26 26 26 26 26 26 26 27 28 28 28 28 28 28 28 28 28 27 26 27 27 28 27 28 28 28 27 27 27 27 26 26 26 27 27 28 27 27 28
28 27 26 26 26 26 26 26 26 26 27 27 27 27 27 27 26 26 26 27 27 26 26 26 26 25 25 26 25 25 26 25 26 26 26 26 26 26 26 26 26 26 26 26 26 26 26 26 27 27 27 27 26 27 27 27 27 27 27 27 27 27 27 27 26 26 27 27 27 27 27 27 27 27 27 27 27 27 26 27 27 27 27 27 28
29 28 27 27 27 27 26 27 27 27 27 28 28 28 28 28 27 27 27 27 28 27 26 26 26 26 25 26 26 25 26 26 26 26 26 26 26 26 26 26 26 26 26 26 26 26 27 27 27 27 27 27 27 27 27 27 27 27 27 27 27 27 27 27 26 26 26 27 27 27 27 27 27 27 27 27 27 27 27 27 27 27 27 27 28
29 28 28 28 27 27 27 27 27 27 27 28 28 28 28 28 28 27 27 27 28 28 27 26 26 26 26 26 26 26 26 26 26 26 27 27 27 27 27 26 26 26 26 27 26 26 26 27 27 27 27 27 27 27 27 27 27 27 27 27 27 27 27 26 26 26 26 26 27 27 27 27 27 27 27 27 27 27 28 27 27 27 26 26 27
29 28 28 28 28 27 27 27 27 27 27 28 28 28 28 28 29 28 28 27 28 28 28 27 26 26 26 26 26 26 26 26 26 26 26 27 27 27 27 27 27 27 27 27 27 27 27 27 27 27 27 27 27 27 27 27 27 27 27 27 27 27 27 27 27 26 26 27 27 27 28 27 27 27 27 27 26 27 27 27 28 28 27 26 26
28 28 28 28 28 28 28 28 27 27 27 27 27 28 28 28 28 28 28 28 28 28 28 28 27 27 26 26 26 26 26 26 26 26 26 26 27 27 27 27 27 27 27 27 28 28 28 28 28 28 27 27 27 27 27 27 27 27 27 27 26 26 27 27 27 27 27 27 27 28 28 27 27 27 27 27 27 27 27 27 28 28 27 27 26
28 27 27 27 27 27 27 27 27 27 27 27 27 27 28 28 28 28 28 28 28 28 28 28 28 27 27 27 27 27 26 26 26 26 26 26 26 27 27 27 27 27 27 27 28 28 28 28 29 28 28 27 26 26 26 27 27 27 27 26 26 26 26 27 27 27 27 27 27 27 27 28 28 28 28 28 27 28 27 27 27 27 27 27 27
28 27 27 27 27 27 27 27 27 27 26 26 26 26 27 27 28 27 27 27 27 28 28 28 28 28 28 27 27 27 27 27 26 26 27 26 26 27 27 27 27 27 27 27 27 28 28 28 29 28 28 27 26 26 26 27 26 26 26 26 26 26 26 26 27 27 27 27 27 28 28 28 28 29 28 28 28 28 27 27 27 27 27 27 27
28 27 27 27 27 27 26 26 26 26 26 26 26 26 26 27 27 27 27 27 27 27 27 27 28 28 28 28 27 27 27 27 27 27 27 27 27 27 27 27 26 26 27 27 27 27 28 28 28 28 28 27 26 26 27 27 27 26 26 26 25 25 26 26 26 27 27 27 27 28 28 28 28 28 28 29 29 28 28 27 27 27 27 27 27
28 27 27 27 26 26 26 26 26 26 26 25 25 25 25 26 26 26 26 26 26 26 26 27 27 28 28 28 28 28 28 28 27 27 27 28 27 27 27 27 27 27 27 27 27 27 28 28 28 28 28 27 26 26 27 27 27 27 27 26 26 25 25 25 26 26 26 27 27 27 28 28 28 28 28 29 29 28 27 27 27 27 27 27 27
26 27 27 27 27 26 26 26 25 25 25 25 25 25 25 25 26 26 26 26 26 26 26 26 26 26 27 28 28 28 28 28 27 27 27 27 28 27 27 27 27 27 27 27 27 27 27 27 27 28 28 28 27 26 26 26 26 27 27 26 26 26 25 25 25 25 25 26 26 27 27 27 27 27 28 27 27 27 27 27 27 26 26 27 27
24 25 26 27 27 26 26 26 25 25 25 25 25 25 25 25 25 26 26 26 26 26 26 26 26 26 26 27 27 27 28 28 27 27 27 27 27 27 26 26 27 27 27 27 27 27 27 26 27 27 27 27 26 26 26 26 26 26 26 26 26 26 26 26 25 25 25 25 25 26 26 26 26 26 26 26 26 26 26 26 26 26 26 26 26
23 23 24 25 26 26 26 26 26 25 25 25 25 25 25 25 25 26 26 26 26 26 26 26 26 26 26 26 26 27 27 27 27 27 27 27 27 26 26 25 26 26 27 27 27 26 26 26 26 26 27 27 26 26 26 26 26 25 25 25 26 26 26 26 26 26 26 25 25 25 26 26 26 26 26 26 25 25 25 25 25 25 25 25 25
21 22 22 23 24 25 26 26 26 26 25 25 25 25 25 25 25 25 26 27 27 26 26 26 26 26 26 26 26 27 27 27 27 27 27 26 26 26 25 25 25 25 26 26 26 26 26 26 26 26 26 26 26 26 26 26 26 26 26 26 26 26 27 26 26 26 26 26 26 26 26 26 26 26 26 26 26 25 25 25 25 25 25 25 26
19 20 21 21 22 23 24 26 26 26 26 25 25 25 25 25 25 25 25 26 27 27 27 27 26 26 26 26 26 27 27 27 27 26 26 26 26 25 25 24 24 25 25 25 26 26 25 25 25 26 26 26 26 26 26 25 25 26 26 26 26 27 28 28 27 26 26 26 26 26 26 26 26 26 25 25 26 25 24 24 25 26 26 26 26
18 19 20 19 20 20 22 23 25 26 26 26 26 26 26 26 26 26 26 26 27 27 28 28 27 27 27 27 27 27 27 27 27 26 26 26 25 25 24 24 24 24 24 25 25 25 25 25 25 25 25 26 26 25 25 25 25 25 25 26 26 27 27 28 28 28 27 27 27 26 26 26 26 26 26 26 26 25 24 23 25 26 26 26 27
18 18 18 18 19 20 20 21 23 25 26 26 26 26 26 26 26 26 26 26 27 27 28 28 28 28 27 27 27 27 27 27 27 26 26 26 25 25 24 24 24 24 25 25 25 25 25 25 25 25 25 25 25 25 25 25 24 24 25 26 26 27 27 28 28 28 27 26 26 26 26 26 26 26 26 26 26 25 24 24 24 25 26 27 27
17 18 17 17 18 19 20 20 21 23 24 25 26 26 26 26 26 26 26 26 27 27 27 28 28 28 28 28 28 27 27 27 27 26 26 26 25 25 24 24 24 25 25 25 25 25 25 25 25 25 25 25 25 25 25 25 24 24 25 26 26 27 27 28 28 28 27 27 26 26 25 26 26 26 26 26 26 26 25 25 24 25 26 26 27
17 17 17 17 17 18 19 20 21 21 22 23 24 25 25 26 26 26 26 27 27 27 27 28 28 28 28 28 28 28 28 27 27 27 26 26 26 25 24 24 24 25 25 25 25 26 26 26 26 25 25 25 25 25 25 25 24 24 24 25 26 26 27 27 27 27 27 27 26 26 26 26 26 26 26 26 26 26 26 25 25 25 25 26 27
17 17 18 18 18 18 19 19 20 21 21 22 21 22 23 23 24 25 25 26 26 26 27 27 27 28 28 28 28 28 28 27 27 27 26 26 26 25 25 24 24 25 25 25 26 26 26 26 26 26 25 25 26 26 25 25 24 24 24 24 25 25 25 25 26 27 27 27 27 26 26 26 27 27 27 27 27 27 26 26 25 25 25 26 26
17 17 18 18 18 18 18 19 19 20 21 20 20 21 22 22 23 23 23 24 25 26 26 26 27 27 28 28 28 28 28 27 27 27 26 26 26 25 25 25 25 25 25 26 26 26 26 26 26 26 25 25 25 25 25 25 24 25 25 25 25 25 24 24 24 25 26 26 26 26 26 26 27 27 27 27 28 28 27 27 26 25 25 26 26
17 17 18 18 18 18 18 19 19 20 20 20 20 21 21 21 22 22 22 23 24 25 26 26 26 27 27 27 28 28 28 28 27 27 26 26 26 25 25 25 25 24 25 25 26 26 27 26 26 26 25 25 25 25 25 25 25 25 25 25 25 24 24 23 23 24 24 25 25 26 26 26 26 27 27 27 27 27 27 27 27 26 26 25 25
17 17 17 18 18 18 18 19 19 20 20 20 20 20 21 21 22 22 22 23 24 25 25 25 26 26 27 27 27 28 28 28 28 27 27 26 25 25 25 26 25 25 24 25 25 26 26 26 26 26 25 25 25 25 25 25 25 25 25 25 24 24 23 22 23 23 24 25 25 25 26 26 26 26 26 26 26 26 26 26 26 26 26 26 25
17 17 17 17 18 19 19 19 19 19 19 19 20 20 20 21 22 22 22 23 24 25 25 25 26 26 26 26 26 27 28 28 28 28 27 26 26 25 25 25 25 25 25 24 25 25 25 25 25 25 25 25 25 24 24 24 24 24 24 24 24 23 22 22 23 23 24 25 25 26 26 26 26 26 25 25 25 26 25 25 25 26 26 26 26
17 17 17 17 18 19 19 18 18 18 18 19 19 19 20 20 21 22 22 23 24 25 25 25 25 26 26 26 26 26 27 27 27 27 27 26 26 25 25 25 25 25 24 24 24 24 24 24 25 25 25 24 24 24 24 24 24 24 24 24 23 23 22 22 23 23 24 24 25 26 26 26 26 26 25 25 25 25 25 25 25 26 26 26 25
16 17 17 17 18 18 18 18 18 18 18 18 19 19 19 19 20 21 21 22 22 23 24 24 25 25 25 25 26 26 27 27 27 26 27 27 27 26 25 24 23 23 22 23 23 23 24 24 24 24 24 24 24 24 24 23 23 23 23 23 23 23 23 23 23 23 24 24 25 26 26 26 26 26 26 26 25 25 25 25 25 25 26 26 26
16 16 17 17 17 17 18 18 18 19 18 18 18 18 18 18 18 19 20 21 21 21 22 22 22 23 23 23 24 25 25 25 25 24 24 26 27 26 25 24 22 21 22 22 21 22 23 24 24 24 24 24 24 24 25 24 24 24 24 23 23 23 23 23 23 23 23 24 24 25 25 26 26 26 26 26 26 26 26 25 25 25 25 25 26
16 16 17 17 17 17 17 17 18 19 18 18 17 17 17 17 18 19 20 20 20 20 20 20 21 21 21 22 23 23 23 24 25 24 23 23 24 25 25 25 24 23 23 23 21 21 22 24 24 25 25 25 26 26 26 26 26 26 25 25 24 24 24 24 24 24 24 24 24 25 25 26 26 26 26 26 26 26 26 25 25 25 25 25 25
16 16 17 17 17 16 16 16 17 17 18 17 17 17 17 17 17 18 19 19 20 20 20 21 21 21 21 22 22 22 23 24 25 25 24 22 21 23 25 25 24 24 25 23 21 20 22 24 25 25 26 26 27 27 27 27 27 27 27 26 26 25 25 25 25 25 25 24 24 25 25 26 26 26 27 27 27 27 26 26 25 25 25 25 25
16 16 16 16 16 16 16 16 16 16 17 17 16 16 17 17 17 17 17 18 18 20 21 21 21 22 22 22 22 22 22 23 24 24 24 22 21 23 24 25 25 25 24 23 21 21 23 25 25 26 26 26 27 27 27 27 28 27 27 27 27 26 26 26 25 25 25 25 25 25 25 26 26 26 26 26 26 26 26 26 25 24 24 24 24
15 15 15 16 16 16 16 16 16 15 15 16 16 16 16 17 17 17 17 17 18 19 20 21 21 22 22 22 22 23 22 22 23 23 23 22 22 23 24 24 23 23 22 21 21 23 24 25 25 26 26 27 27 27 27 27 27 27 27 27 28 27 27 26 26 25 25 26 26 26 26 26 26 26 26 26 26 26 25 25 25 24 24 23 24
15 15 15 15 15 15 15 16 15 15 14 15 15 16 16 16 16 16 17 17 18 19 19 20 21 21 22 22 22 22 23 23 22 22 22 22 23 24 24 23 22 21 21 21 22 24 25 25 26 26 26 27 27 27 27 27 27 27 27 27 27 28 27 27 26 26 25 26 26 26 26 26 26 26 26 26 25 25 25 25 25 24 24 23 23
15 15 15 15 15 15 15 15 15 15 14 14 14 15 15 16 16 16 16 17 18 18 19 20 20 20 21 21 21 22 22 23 23 22 22 23 23 23 23 23 22 21 21 21 22 23 25 26 26 26 26 27 27 27 27 27 27 27 27 27 27 27 27 27 27 26 26 26 26 26 26 26 26 26 26 26 25 25 25 24 24 24 24 24 23
15 15 15 15 15 14 14 14 15 15 14 14 13 14 15 16 16 16 16 17 17 18 18 19 19 19 20 21 21 21 22 22 23 23 23 22 22 22 22 22 22 22 22 22 22 23 24 25 26 26 27 27 27 27 27 27 27 27 27 27 27 27 27 27 27 27 26 26 26 26 26 26 26 26 26 26 26 25 24 24 24 24 24 24 23
15 15 15 15 14 13 13 13 14 14 14 13 13 14 15 16 16 16 17 17 17 17 17 17 17 18 19 20 21 21 21 22 22 22 23 22 22 21 20 21 22 23 23 23 23 23 24 25 26 26 26 27 27 27 27 27 27 27 27 27 27 27 27 27 27 27 26 26 26 26 25 25 26 25 25 26 26 25 25 24 24 23 23 23 23
14 14 13 13 13 13 12 12 13 13 13 14 14 14 14 15 15 16 16 16 16 16 16 17 17 17 19 19 19 19 19 20 21 22 22 22 22 21 20 21 22 23 24 24 24 24 24 25 25 26 26 26 27 27 27 27 27 27 27 27 27 26 26 27 27 26 26 26 26 26 25 25 25 25 25 25 25 25 25 24 24 24 23 22 22
13 13 12 12 12 12 12 12 13 13 14 14 15 14 14 14 15 15 15 15 15 16 16 16 16 17 17 17 16 16 16 17 20 22 22 22 22 22 21 20 21 22 23 24 25 25 25 25 25 26 26 26 26 27 27 27 27 27 27 27 26 26 26 26 26 26 26 26 26 26 26 25 25 25 24 24 24 24 24 24 24 24 24 23 22
13 13 13 12 12 12 12 12 12 13 14 14 14 14 14 14 14 14 14 14 15 15 15 15 15 15 15 15 14 14 13 14 17 20 22 22 22 22 21 20 20 21 22 23 24 25 25 25 25 26 26 26 26 26 26 26 26 26 26 26 26 26 26 26 26 26 25 25 26 26 26 25 24 24 24 24 24 24 24 23 23 23 24 24 23
12 13 13 12 12 12 12 12 12 12 13 13 13 13 13 13 13 13 13 14 14 14 14 14 14 14 13 13 13 13 12 13 15 18 20 21 22 21 21 21 21 21 21 22 22 23 23 24 24 25 25 25 25 25 25 25 25 25 26 25 25 25 25 26 26 26 25 25 25 25 25 25 24 24 24 24 23 23 23 23 23 23 23 23 23
12 13 13 13 12 12 12 12 12 12 12 12 12 13 13 12 12 12 12 13 13 13 13 13 13 12 11 11 12 12 12 13 14 15 17 18 19 19 19 20 20 20 20 20 21 21 21 22 22 23 23 24 24 24 24 25 25 25 25 25 25 24 24 25 25 25 25 25 24 24 24 24 24 24 24 23 23 23 22 22 22 22 22 22 21
12 12 13 12 12 12 12 12 12 11 11 11 11 12 11 11 12 12 11 11 12 12 12 12 11 11 10 10 10 11 11 10 11 12 13 14 15 15 16 17 17 17 18 18 18 19 19 19 20 20 21 21 22 22 22 23 23 24 24 24 24 24 24 24 25 24 24 24 24 24 23 23 23 23 23 23 23 22 22 21 21 21 21 21 20
11 12 12 12 12 12 12 11 11 11 11 11 11 11 10 10 11 11 11 11 11 11 11 11 10 10 9 9 9 8 8 8 8 9 9 10 11 12 12 13 14 14 15 16 16 16 17 17 18 18 18 19 19 20 20 20 20 21 21 21 21 22 22 23 23 23 23 23 23 22 22 22 23 23 23 22 22 22 21 21 20 20 20 20 20
11 12 12 12 12 12 12 11 11 10 10 10 10 10 10 10 10 10 10 10 9 9 10 10 9 9 8 8 7 7 7 7 7 7 7 7 8 9 10 10 11 12 12 13 14 14 14 15 15 16 16 17 17 17 18 18 18 18 18 18 18 19 19 20 21 21 21 21 22 21 21 21 22 22 22 21 21 21 20 20 20 20 20 19 19
11 11 11 11 11 11 11 11 10 10 10 10 10 10 10 10 10 10 9 9 8 8 8 8 8 8 8 7 7 6 6 6 6 6 6 6 6 7 8 8 9 9 10 10 11 11 12 12 13 13 14 14 15 15 16 16 16 16 17 17 17 17 17 18 18 19 19 19 20 20 20 21 21 21 21 20 20 20 19 19 19 19 19 19 19
10 10 10 11 11 11 10 10 10 10 10 10 10 10 10 10 9 9 8 8 8 7 7 7 7 7 7 6 6 6 5 5 5 5 5 5 5 5 6 7 7 8 8 9 9 10 10 10 10 11 11 11 12 12 13 14 14 14 14 15 15 15 16 17 17 17 18 18 18 18 19 20 20 20 20 20 19 19 19 19 19 19 19 19 19
9 9 9 10 10 10 10 10 9 9 9 9 9 9 9 9 9 8 8 8 7 7 6 6 6 6 6 5 5 5 5 5 4 4 4 4 4 4 5 5 6 6 7 7 8 8 8 9 9 9 10 10 10 11 11 12 12 13 13 13 14 14 15 16 16 17 17 17 17 17 18 19 19 19 20 19 19 19 19 19 19 19 18 18 19
8 8 9 9 9 9 9 9 9 9 9 9 9 9 9 8 8 8 8 7 7 6 5 5 5 5 5 5 5 4 4 4 4 4 4 4 4 4 4 4 5 5 5 5 6 6 6 7 7 8 8 8 9 9 9 10 11 11 11 12 13 13 14 15 15 16 16 17 16 16 17 17 18 19 19 19 19 19 19 18 18 18 18 18 18
7 8 8 8 8 8 8 8 8 8 8 8 8 8 8 8 8 8 7 7 6 5 5 5 5 5 5 5 5 4 4 4 4 4 4 4 4 4 4 4 4 4 4 4 5 5 5 5 6 6 6 6 6 7 7 8 8 9 9 10 11 12 13 14 15 15 15 16 16 16 16 16 16 17 18 18 18 18 18 17 17 17 17 16 16
7 7 8 8 8 8 7 7 7 7 7 7 7 7 7 7 7 7 7 6 6 5 5 4 5 4 4 4 4 4 4 4 4 3 3 3 3 3 3 4 4 4 4 4 4 4 4 5 5 5 6 6 6 6 7 7 8 8 9 10 10 11 12 13 14 14 15 14 14 14 14 14 14 15 15 15 15 15 15 14 14 14 14 15 15
Height
816 819 821 824 826 828 830 832 835 837 840 842 844 845 847 849 851 852 854 855 857 859 860 861 863 864 865 865 866 867 868 869 870 871 871 872 873 874 874 875 876 876 876 877 877 878 878 879 879 879 880 880 880 880 880 880 881 881 881 882 881 881 881 881 881 880 879 878 878 877 877 877 876 875 875 874 873 872 871 870 870 868 868 867 865
813 816 818 821 823 826 828 830 832 834 837 839 841 843 845 847 848 850 852 853 855 856 858 859 861 862 863 864 865 866 867 868 868 869 870 871 872 873 873 874 874 875 875 876 876 877 877 877 878 878 878 879 879 879 879 879 879 879 880 880 880 880 880 880 880 879 878 877 877 877 876 876 875 875 874 873 872 871 870 870 869 868 867 866 865
810 813 815 818 820 823 825 828 830 832 834 837 838 840 842 844 846 848 849 851 852 854 855 857 859 860 861 862 863 864 865 866 867 867 868 869 870 871 872 872 873 873 874 874 874 875 875 876 876 876 877 877 877 877 877 878 878 878 878 878 879 879 879 879 879 878 877 876 876 876 875 875 875 874 873 872 871 870 869 868 867 867 865 865 864
808 810 813 815 818 820 822 825 827 829 831 834 836 838 840 842 843 845 847 848 850 851 852 854 856 857 859 860 861 862 863 864 865 866 867 868 868 869 870 871 871 872 872 872 873 873 873 874 874 875 875 875 875 876 876 876 877 877 877 877 877 877 877 877 877 877 876 876 875 875 875 874 874 873 872 871 870 869 868 867 866 865 864 863 863
806 808 810 813 815 817 820 822 824 826 828 830 832 835 837 839 840 842 844 845 847 848 850 851 853 854 856 857 858 860 861 862 863 864 865 866 867 867 868 869 869 870 870 870 871 871 872 872 872 873 873 873 874 874 874 874 875 875 875 875 875 875 875 875 875 875 875 874 874 874 874 873 872 871 870 869 869 868 866 866 865 864 863 862 862
804 806 808 810 813 815 817 819 821 823 825 827 829 832 834 835 837 839 840 842 844 845 847 848 849 851 852 854 856 857 858 859 860 861 863 863 864 866 866 867 867 868 868 868 869 869 870 870 870 871 871 871 871 872 872 872 873 873 873 873 873 874 873 873 873 873 873 873 873 872 872 871 870 869 868 868 867 866 865 864 863 863 862 861 861
802 804 806 808 810 812 814 816 818 820 822 824 826 828 830 832 834 835 837 839 840 842 843 845 846 847 849 851 853 854 855 856 858 858 860 861 862 863 864 865 865 865 866 866 867 867 867 868 868 868 869 869 869 870 870 870 870 871 871 871 871 871 871 871 871 871 871 871 871 870 869 869 868 867 866 866 865 864 864 863 862 862 861 860 860
800 802 805 806 808 809 811 813 815 817 819 821 823 825 827 829 831 832 834 835 837 839 840 842 843 844 846 847 849 851 852 853 854 855 857 858 859 860 861 862 863 863 864 864 864 865 865 865 865 865 866 866 867 867 868 868 868 868 868 869 869 869 869 869 869 869 869 869 868 868 867 867 866 865 864 864 863 863 862 862 861 860 860 859 858
799 801 802 804 805 806 808 811 812 815 817 818 820 822 824 826 828 829 831 832 834 836 837 839 840 841 843 844 846 848 849 850 851 852 854 855 856 858 858 859 860 860 861 861 862 862 862 863 862 863 863 863 864 864 865 865 866 866 866 866 866 867 866 866 866 866 867 866 866 866 865 864 864 863 862 862 861 861 861 860 860 859 858 858 857
799 800 801 801 803 805 806 808 810 812 814 816 817 819 821 823 825 826 828 829 831 832 834 836 837 838 840 841 842 844 845 846 847 848 850 851 853 855 855 856 857 857 858 858 859 859 859 860 860 860 860 861 861 861 861 862 863 863 864 864 864 864 864 864 864 864 864 864 864 863 862 861 861 861 860 860 860 859 859 858 858 857 857 856 855
797 799 800 800 802 804 805 806 808 810 811 813 814 816 818 820 822 824 825 826 828 829 831 832 834 835 836 837 839 840 841 842 842 844 846 848 850 851 852 853 854 854 855 855 855 856 856 857 857 857 857 857 857 857 858 858 859 860 860 861 862 862 862 862 861 861 861 861 861 860 859 859 859 859 859 858 858 857 857 857 856 856 855 854 853
795 797 799 800 801 802 803 804 806 807 809 810 812 813 816 818 819 821 822 823 825 826 827 828 830 831 833 834 835 836 836 837 838 840 841 843 845 848 849 850 851 851 851 851 852 852 852 853 854 854 854 854 854 854 854 854 855 856 857 858 858 859 859 859 859 859 859 859 858 858 857 857 857 857 857 856 856 856 855 855 855 854 853 852 851
796 796 796 798 799 800 801 802 803 804 806 807 809 811 813 815 816 817 818 820 822 823 823 825 826 827 829 830 831 831 832 833 834 835 837 839 841 843 845 846 847 847 848 848 848 849 849 849 850 850 851 851 851 852 852 851 852 852 853 854 854 855 855 855 856 856 857 857 856 855 855 855 855 855 855 855 854 854 854 853 853 852 851 851 850
796 796 795 796 797 798 799 799 800 801 803 804 806 808 810 811 812 814 815 817 818 819 819 821 822 823 824 825 826 827 828 829 830 831 832 834 836 838 840 842 843 843 844 844 844 845 845 846 846 846 847 847 848 848 849 849 849 849 849 850 850 851 851 851 852 852 853 853 853 852 852 853 852 852 852 853 852 852 852 851 851 850 849 848 847
796 795 795 794 795 796 797 797 798 799 800 801 803 804 806 807 808 810 811 813 813 814 815 816 817 818 819 820 821 822 823 824 825 826 827 828 831 833 835 836 838 839 839 840 840 840 841 841 842 842 843 843 844 844 845 846 847 847 847 847 847 847 847 847 847 848 849 849 849 848 849 849 850 850 850 850 850 850 849 849 848 848 847 846 845
795 795 794 793 793 793 794 794 795 796 797 798 798 799 801 802 803 805 807 809 809 810 811 812 812 813 814 815 816 817 817 818 820 821 822 824 826 828 830 831 832 834 834 835 835 836 836 837 837 838 838 839 839 840 841 842 843 844 844 844 844 844 844 844 844 844 844 845 844 845 845 846 846 846 847 847 847 847 847 847 846 845 845 843 842
796 795 794 793 792 791 791 791 792 793 794 794 794 795 796 796 798 800 802 804 805 806 806 807 808 808 809 810 811 812 812 813 815 816 817 820 822 824 825 826 827 828 829 830 831 831 831 831 832 833 833 834 835 835 837 838 839 840 841 841 841 840 840 840 840 840 840 841 841 841 841 842 842 842 843 843 844 845 845 844 843 843 842 841 839
796 795 794 793 791 790 790 789 789 790 790 790 790 790 791 792 793 795 796 798 799 801 802 803 804 804 805 805 806 807 807 808 810 811 813 816 818 819 821 823 823 824 824 825 826 826 826 826 827 828 828 829 831 831 832 834 835 836 837 837 837 836 836 837 837 836 836 836 837 837 837 838 838 838 839 840 840 841 842 841 841 841 839 837 836
797 795 794 792 790 790 789 788 788 787 787 787 787 787 788 789 790 791 792 793 794 796 797 798 799 799 800 801 802 802 803 804 805 806 808 811 813 815 817 819 819 819 819 820 820 821 821 821 821 822 823 825 827 827 828 830 831 832 833 833 833 832 833 833 834 833 833 833 833 834 834 834 834 834 835 835 836 837 837 837 838 838 837 835 834
798 796 794 792 790 789 789 788 787 786 784 783 783 784 785 786 787 789 789 790 791 791 792 793 794 795 795 796 797 798 798 799 800 801 802 805 807 810 812 814 814 815 815 815 816 816 816 816 816 816 818 820 822 823 824 825 826 828 829 829 828 828 829 830 830 831 831 830 830 831 831 831 831 831 831 831 832 832 832 833 834 834 834 832 832
798 796 794 791 790 789 788 788 786 785 783 782 781 782 783 784 786 787 787 788 788 788 788 789 789 789 790 791 791 792 793 794 795 796 797 799 801 803 806 807 808 809 810 811 811 811 811 811 811 812 812 814 816 818 819 820 822 824 825 824 824 825 827 827 827 828 828 828 828 828 828 828 828 828 828 828 828 828 828 828 829 830 830 829 828
798 796 794 791 790 788 787 787 785 784 782 780 779 780 783 784 785 786 787 787 786 786 786 786 785 785 785 785 786 787 788 789 790 791 792 793 795 797 799 800 802 804 805 805 805 805 806 806 807 807 808 809 811 813 815 816 818 819 819 819 820 822 823 824 825 825 825 825 825 825 825 824 824 824 824 824 824 824 824 824 824 824 825 825 824
798 796 794 792 790 788 786 784 783 782 781 779 778 780 782 783 783 784 785 785 784 783 783 783 782 781 780 780 780 781 782 784 785 786 787 788 789 791 792 794 796 798 799 799 799 800 801 802 803 804 804 805 806 808 810 812 813 814 814 815 817 818 820 821 822 822 822 821 821 821 821 821 820 820 820 820 820 820 820 820 820 820 820 820 820
797 795 793 791 790 788 785 782 781 780 780 778 778 778 779 781 781 780 781 781 782 781 780 780 780 778 777 776 776 777 777 778 779 781 781 782 784 785 786 787 789 792 793 793 794 795 796 798 799 800 800 801 803 805 806 807 808 808 809 811 813 815 816 817 818 819 818 818 817 817 817 817 816 816 816 816 816 816 816 816 816 816 816 816 816
796 794 793 791 789 787 784 781 779 779 778 777 777 776 777 778 777 777 777 778 778 777 776 777 777 775 774 774 773 773 773 774 774 775 775 776 777 778 779 780 781 784 785 786 788 790 791 793 795 796 796 798 799 801 801 802 803 804 806 808 809 811 812 812 813 814 814 813 813 813 812 812 812 812 812 813 813 813 813 813 812 813 813 812 812
795 794 792 790 788 786 784 781 779 778 777 776 775 775 775 775 774 773 773 774 773 772 772 772 772 772 771 770 770 771 770 770 771 771 771 770 771 772 773 773 775 777 778 780 782 785 786 789 790 791 792 793 795 796 796 797 799 801 802 803 805 806 806 807 808 808 808 808 808 808 808 808 808 808 809 809 809 809 809 809 809 808 809 809 808
795 793 791 790 787 785 783 781 778 777 776 775 774 773 773 773 772 771 771 770 769 768 768 768 768 768 767 767 768 769 768 767 767 767 768 767 766 766 767 768 769 771 773 774 777 779 781 783 785 786 788 789 790 791 792 794 795 796 797 798 799 799 800 801 802 802 803 803 803 803 803 803 804 804 804 805 804 804 805 805 804 804 804 805 805
794 792 791 789 787 785 782 780 777 775 773 772 772 771 771 771 770 769 769 769 767 765 765 765 765 766 766 766 766 765 764 764 765 765 765 764 762 762 763 765 768 771 773 775 777 778 779 779 780 782 783 785 786 787 788 789 790 790 791 792 793 793 795 796 797 797 797 798 798 798 798 798 799 799 799 799 799 799 800 800 800 799 800 801 801
793 791 790 788 786 784 782 779 777 774 771 770 769 769 768 768 768 767 766 766 766 764 764 764 763 764 764 764 762 760 757 757 760 764 765 763 760 758 759 762 766 771 776 779 782 782 781 778 777 777 778 779 780 781 782 783 784 785 786 786 787 788 789 790 790 790 791 792 793 793 793 793 793 793 794 794 794 795 796 796 796 796 796 797 797
792 790 788 787 785 784 782 779 776 774 771 768 766 766 765 765 765 764 762 762 762 762 761 761 761 761 760 758 757 756 753 751 753 759 763 763 760 756 755 756 760 764 767 771 776 780 780 776 774 773 772 773 773 773 775 776 777 778 780 781 781 782 782 783 783 784 785 786 787 787 788 787 787 787 788 788 789 790 791 792 792 793 792 792 792
791 789 787 785 784 782 781 778 775 773 770 766 763 762 761 761 761 760 760 759 758 758 757 757 757 757 756 753 754 755 753 750 750 753 757 761 760 755 752 753 755 757 759 762 767 772 774 772 770 768 767 767 766 767 768 770 771 772 773 774 775 776 776 777 777 779 780 780 781 782 782 781 781 782 782 783 784 785 786 787 788 788 788 788 788
790 788 786 784 782 781 780 778 775 772 769 766 762 758 757 758 757 756 756 756 755 754 753 753 753 753 751 750 750 750 749 749 749 749 753 757 757 752 748 748 750 753 756 759 763 767 768 767 764 762 762 762 761 762 763 764 765 767 768 768 769 770 771 772 773 774 774 774 775 775 775 775 776 776 777 778 779 779 780 782 783 783 783 783 783
788 786 785 783 781 779 778 776 774 771 768 766 763 758 755 756 756 754 752 751 751 750 749 749 749 748 746 745 744 743 743 745 746 747 750 752 751 747 743 743 746 750 755 759 761 762 762 760 759 757 757 757 756 758 759 760 761 762 763 763 764 765 766 767 769 769 769 768 768 768 768 769 771 771 772 773 774 774 775 776 777 777 777 778 778
785 784 783 782 780 778 776 774 773 770 768 766 764 760 755 754 755 754 750 748 746 746 746 746 745 744 743 742 740 740 740 741 743 745 746 746 744 741 739 740 743 747 751 754 755 755 754 753 752 752 753 752 753 754 755 756 757 758 759 759 760 760 761 762 763 763 763 763 763 763 763 765 766 767 768 769 768 769 770 771 772 772 771 772 773
783 782 781 780 779 777 775 773 771 769 766 764 763 761 756 753 753 754 752 749 747 745 744 743 743 742 741 740 739 739 739 739 740 740 741 740 739 738 737 737 739 741 744 746 747 747 747 746 746 747 748 748 749 750 751 751 753 753 754 755 755 755 756 757 757 757 758 758 759 759 760 761 761 762 763 764 763 763 764 765 766 766 766 767 769
781 779 778 778 777 776 774 773 770 768 765 763 762 761 757 753 751 751 751 750 748 746 744 743 742 741 739 738 737 737 737 737 736 735 734 734 734 735 735 735 735 736 737 738 739 740 741 741 741 742 743 743 744 745 746 746 747 748 748 749 749 750 750 751 751 752 753 753 754 755 755 756 757 757 758 758 758 759 760 760 761 761 762 762 764
778 777 776 775 774 774 773 771 769 767 764 762 760 759 758 754 749 747 748 749 748 746 745 742 740 738 737 736 735 735 735 735 734 732 731 730 730 731 732 732 733 733 733 734 734 735 736 737 737 738 739 739 739 740 740 741 742 742 743 743 744 745 745 745 746 746 747 748 748 749 749 750 750 751 751 751 752 754 754 754 755 756 757 757 758
776 775 773 773 772 772 771 769 768 766 763 761 758 757 756 754 749 745 745 746 746 745 743 741 739 738 737 736 736 735 734 733 732 731 729 729 729 729 728 729 730 731 730 731 731 731 732 732 733 734 735 735 735 735 736 736 737 737 738 739 739 740 740 740 740 740 740 740 740 740 741 742 743 743 743 743 744 745 746 747 748 749 750 751 752
774 773 771 770 770 769 768 767 766 764 762 760 757 755 754 753 749 745 743 744 745 744 742 740 738 737 737 736 735 733 733 733 732 730 728 728 728 727 727 727 728 728 728 728 728 728 728 728 729 730 731 731 731 731 731 732 732 732 733 735 735 735 736 736 735 735 734 734 734 734 735 736 738 739 738 738 738 738 738 738 739 740 741 743 744
773 771 769 768 767 766 765 764 764 762 761 759 757 755 753 752 750 747 744 743 744 743 742 739 737 736 736 735 733 732 732 732 731 730 729 728 727 727 726 726 726 725 725 726 725 725 725 725 725 726 727 727 727 727 728 728 728 728 729 730 731 731 731 731 731 730 730 730 730 730 730 731 733 734 734 734 734 735 735 734 733 733 733 735 737
771 769 768 766 765 764 763 762 761 761 760 758 756 754 753 752 751 749 746 744 743 743 742 741 739 737 735 734 733 733 733 732 731 731 730 729 727 726 725 724 724 723 723 723 723 723 723 723 723 723 724 724 724 724 724 724 724 724 725 725 726 727 727 726 726 726 726 726 726 726 726 727 727 727 727 727 728 730 731 731 730 728 728 728 730
770 768 766 765 763 761 761 760 759 759 758 757 755 754 752 751 750 749 748 746 745 744 744 743 741 738 735 733 733 733 734 733 732 731 730 728 726 725 723 723 722 721 720 720 720 720 720 720 721 721 721 721 721 722 722 721 721 721 721 721 721 722 722 722 721 721 721 722 721 721 722 723 723 722 722 723 723 723 724 724 724 724 723 722 724
768 766 765 763 761 760 759 758 758 757 757 756 755 754 753 751 750 748 748 747 746 745 744 743 741 737 734 733 734 735 735 734 733 731 729 727 725 723 722 721 721 720 719 719 718 718 718 718 718 718 718 717 718 718 718 718 717 717 717 717 717 717 717 717 717 717 717 717 717 719 721 721 720 718 718 719 719 718 717 718 718 718 719 719 720
766 765 763 762 760 758 757 757 756 756 755 755 755 754 753 752 750 749 748 747 747 746 745 744 742 739 735 734 735 736 736 734 733 731 729 726 724 722 721 720 720 720 719 718 718 717 717 716 715 715 715 714 714 715 715 715 714 713 713 713 713 713 713 713 714 714 714 713 714 715 717 717 715 713 713 713 713 712 711 711 711 712 714 715 717
765 763 762 760 758 757 756 755 755 754 754 754 754 754 754 753 751 749 748 747 747 747 746 745 744 742 738 736 736 737 736 734 732 730 728 726 724 722 721 721 721 721 720 719 718 717 716 716 715 714 713 713 712 712 712 712 711 710 710 709 709 708 709 709 709 710 710 710 709 710 710 710 709 709 708 707 706 706 706 707 707 706 707 709 710
764 762 761 759 758 756 755 754 753 753 753 753 753 753 754 753 751 750 748 747 747 746 746 746 745 742 738 736 736 737 736 733 731 729 728 726 724 723 722 722 722 722 721 720 719 717 716 715 714 713 712 711 711 710 710 709 709 708 707 706 705 705 705 705 705 705 705 706 706 705 704 703 703 702 702 701 701 701 702 704 704 703 702 702 703
763 762 760 759 757 756 755 753 752 751 751 752 752 752 753 753 751 750 748 747 746 745 745 746 745 741 736 734 736 737 736 734 731 729 729 728 727 725 724 723 723 723 722 720 719 717 716 715 714 713 712 711 710 709 708 707 706 705 704 703 703 702 701 701 701 700 701 701 702 702 700 699 697 696 696 696 696 696 696 697 698 699 697 696 697
762 761 759 758 757 755 754 753 752 751 750 750 750 751 751 752 751 749 747 746 745 745 744 745 743 738 734 734 737 738 737 734 731 729 730 730 729 728 726 724 724 723 722 721 720 719 717 716 715 713 712 711 710 709 707 706 705 704 703 701 700 699 698 697 696 695 695 696 696 697 697 696 694 692 691 691 691 692 692 692 694 695 694 693 693
761 759 758 757 756 755 754 753 751 750 749 749 749 750 750 750 750 749 747 745 745 744 743 743 741 738 736 737 739 739 736 734 732 731 731 731 731 730 729 727 726 725 724 723 722 721 719 718 716 715 713 712 710 708 707 706 705 703 702 700 698 696 694 693 691 690 690 690 690 691 692 692 691 689 688 687 688 690 691 691 692 693 693 692 692
759 758 757 756 755 755 754 753 751 750 749 748 749 749 750 750 750 749 747 746 745 744 744 743 742 741 740 739 739 737 735 734 734 734 734 733 733 733 731 730 728 727 726 725 723 722 720 719 718 716 715 713 711 709 708 706 705 703 701 699 697 695 693 691 688 686 686 686 686 686 686 687 687 686 685 685 685 686 687 688 689 690 689 689 692
759 757 757 756 755 754 753 753 751 750 749 748 748 749 750 750 750 749 748 747 746 745 745 744 743 742 740 739 738 737 736 736 737 737 737 735 734 734 733 731 730 729 728 727 725 723 721 720 719 718 717 715 714 712 710 709 707 705 702 700 697 696 694 692 689 686 684 682 682 683 683 684 685 684 684 684 684 686 687 687 686 685 685 687 691
Wind_Speed
23 23 23 22 21 21 22 22 23 22 21 20 20 19 18 17 17 15 15 15 15 15 15 14 14 13 13 12 12 12 12 12 12 11 11 11 10 10 9 9 10 9 8 8 7 6 6 7 7 7 7 8 8 8 7 7 7 6 5 5 5 5 4 5 6 6 7 6 6 6 6 7 6 5 6 7 7 8 8 7 8 8 8 8 9
24 23 22 22 22 22 22 22 22 22 22 21 21 20 19 18 17 16 16 16 16 16 16 15 15 15 14 14 13 13 12 12 12 12 12 12 11 11 10 10 11 10 10 10 9 8 8 8 8 8 8 9 9 9 8 8 8 7 7 6 6 6 5 5 6 7 8 7 7 7 6 6 6 6 7 8 8 8 8 7 7 6 7 7 7
24 23 22 23 24 23 22 22 22 22 22 22 22 21 20 19 19 19 18 17 17 17 17 16 15 15 15 14 14 14 13 13 13 12 12 12 12 12 11 11 11 11 11 11 11 10 9 9 9 9 9 9 9 10 10 9 9 8 8 8 8 7 7 6 7 8 9 8 7 8 7 6 7 7 7 8 8 8 8 7 7 6 6 7 7
22 22 23 23 23 23 23 22 22 23 23 23 22 22 21 20 20 20 20 19 18 17 17 17 16 16 16 15 15 15 14 14 14 13 13 13 12 12 11 11 11 11 11 11 11 11 11 11 10 10 10 10 10 10 10 10 10 10 10 9 9 9 8 8 9 9 9 9 8 8 8 8 8 7 7 8 8 8 8 8 7 7 6 7 7
21 22 22 22 22 23 23 23 23 23 23 23 23 23 22 21 20 20 21 20 19 18 17 18 18 18 18 17 17 17 16 15 15 14 14 13 13 12 12 11 11 11 11 11 11 11 12 12 11 11 11 11 12 12 11 11 11 11 10 9 9 9 9 9 10 10 10 11 10 9 9 9 8 8 7 8 8 8 9 8 8 8 7 7 8
20 21 21 20 21 22 23 23 23 23 23 23 23 22 22 21 21 20 20 20 20 19 18 18 19 20 20 19 18 18 17 17 16 16 15 14 13 13 12 12 12 12 11 11 11 12 12 12 12 12 12 13 13 12 12 12 12 11 11 11 10 10 10 10 10 10 11 11 11 10 10 9 9 8 7 7 8 9 9 9 8 8 7 7 8
20 20 20 20 20 21 22 23 23 23 23 23 23 22 22 22 22 21 20 20 21 21 20 19 19 20 21 21 20 19 18 18 18 18 17 16 15 14 14 13 12 12 12 12 12 12 12 12 13 13 14 14 14 13 13 12 13 13 12 12 11 11 11 11 11 11 11 11 11 11 10 9 9 10 9 8 9 9 8 8 8 7 7 8 8
21 21 19 19 20 21 22 22 22 22 23 23 23 22 22 22 22 21 20 20 21 21 21 20 20 20 21 22 21 20 20 19 19 19 19 18 17 16 15 15 14 14 13 13 12 12 12 13 14 14 15 15 15 14 13 12 12 12 12 12 12 12 12 12 11 11 11 11 11 10 10 10 10 10 10 9 9 8 7 7 9 9 9 9 8
19 20 21 21 21 22 22 21 21 22 22 22 22 23 22 22 22 22 21 21 21 21 22 21 21 20 20 20 21 21 20 20 20 21 21 20 19 18 17 16 16 16 15 15 14 14 14 14 15 15 16 16 17 17 16 15 14 13 12 12 12 13 13 12 12 11 11 11 11 11 11 11 11 10 9 9 9 9 8 9 10 10 10 10 10
18 18 21 22 21 20 20 20 20 21 21 22 22 23 23 22 21 22 22 22 21 21 21 22 22 21 20 20 21 21 21 21 23 25 25 23 20 19 18 18 17 17 17 16 16 16 16 16 16 16 17 19 21 22 22 20 19 18 15 13 13 13 13 13 13 13 12 12 12 12 12 12 11 11 10 10 10 10 10 9 9 10 10 10 11
17 18 19 20 19 19 19 19 20 21 21 22 22 22 22 22 21 21 21 21 21 21 21 22 23 22 22 21 21 21 22 22 25 28 30 28 24 20 18 18 18 18 18 18 18 18 18 18 17 17 18 20 23 25 25 23 22 21 21 20 18 16 15 13 13 13 13 13 13 13 13 13 12 11 11 12 11 11 10 10 10 10 10 10 10
15 17 18 19 18 19 19 19 20 21 21 21 21 21 21 21 21 21 21 21 21 21 21 22 23 23 23 22 22 23 23 24 27 30 31 32 30 25 21 18 18 18 18 19 19 19 19 18 18 18 17 18 20 21 21 22 22 22 22 22 22 22 21 19 17 15 13 13 14 14 14 14 13 12 12 12 11 10 11 11 11 11 11 11 11
12 15 18 19 19 20 20 20 20 21 22 22 21 20 20 21 22 22 22 22 20 21 22 22 23 23 23 23 24 24 24 24 27 31 32 33 34 31 27 23 20 20 19 19 19 19 19 19 18 18 17 18 18 18 18 18 20 21 22 22 22 23 24 24 24 22 19 16 15 16 15 14 14 14 12 11 10 11 12 12 12 12 12 12 12
8 11 14 16 18 19 19 20 21 21 21 21 21 21 21 22 23 23 22 21 21 22 23 23 23 23 24 25 25 25 25 25 27 30 33 33 34 34 32 27 24 23 22 21 21 20 20 19 19 19 18 18 18 19 18 18 18 18 20 21 23 23 23 24 25 26 26 23 21 20 18 16 16 15 13 11 11 12 13 13 12 12 13 14 15
7 8 10 11 15 18 20 21 21 21 21 20 21 22 23 22 23 23 22 21 22 23 24 23 24 24 25 25 25 26 27 28 29 31 33 33 33 33 33 30 26 24 24 24 24 23 22 21 21 20 19 19 19 20 19 18 17 17 17 18 19 20 21 22 23 25 26 27 27 25 22 20 18 17 15 13 13 14 14 14 14 14 14 15 16
9 9 9 9 10 13 18 22 23 22 21 21 21 23 24 24 24 23 22 22 22 22 22 23 24 25 26 26 25 26 27 28 31 33 34 34 33 31 32 31 27 25 25 25 25 24 24 24 23 23 22 21 22 24 23 20 17 17 18 18 18 18 19 21 22 24 25 26 27 26 24 21 20 19 19 17 15 14 13 14 15 15 14 14 14
11 11 11 11 12 12 13 18 22 23 22 22 23 24 24 25 25 23 23 23 23 22 22 22 23 24 25 25 25 26 27 28 31 33 34 34 33 32 32 29 26 26 26 26 26 25 26 26 26 24 23 23 24 26 27 25 22 19 18 18 19 20 20 20 22 24 25 25 25 26 26 24 23 23 23 22 20 18 15 15 15 15 15 14 14
11 12 12 13 13 13 14 14 18 23 24 24 24 25 25 24 24 23 23 23 24 24 23 22 21 22 23 24 25 26 26 27 29 32 33 33 33 34 31 26 24 25 25 25 26 26 27 29 29 27 25 24 25 26 28 28 25 22 20 20 20 21 20 19 20 22 23 23 23 24 25 26 26 25 24 23 22 21 20 19 17 16 16 15 15
13 12 11 12 12 13 15 16 16 19 24 26 26 25 24 24 22 22 22 22 23 23 23 22 22 21 22 23 25 26 26 26 27 30 32 32 33 34 30 24 23 24 24 24 26 26 27 30 32 33 31 27 26 26 28 28 26 23 21 21 22 22 21 20 19 19 19 20 21 22 24 25 26 25 25 24 22 22 23 23 20 17 17 17 16
16 14 13 11 10 11 13 16 16 16 18 23 27 26 24 23 22 21 21 21 21 21 22 22 22 23 22 22 23 25 25 26 26 29 31 31 32 34 30 25 24 25 24 24 24 24 25 26 29 34 36 34 32 30 30 31 29 25 21 21 22 22 20 20 20 19 18 18 19 20 21 21 21 21 22 22 22 23 25 26 23 20 19 18 17
17 16 15 12 10 10 11 13 15 16 16 16 19 22 22 20 20 20 20 20 20 21 21 21 22 23 23 23 23 23 24 25 26 28 31 31 32 33 32 28 27 26 25 24 24 24 25 25 26 29 33 35 36 35 35 35 33 28 24 24 24 22 20 19 18 18 18 18 18 18 18 18 18 19 19 19 19 21 23 26 26 23 21 20 19
18 18 17 15 12 10 9 11 12 14 15 14 12 15 19 20 18 17 17 19 20 22 23 23 23 23 23 23 23 23 24 25 26 27 30 31 32 34 34 32 30 27 25 25 25 25 24 24 24 25 29 32 33 34 35 35 35 34 32 30 28 26 24 21 18 18 18 19 19 18 18 18 19 19 19 19 19 19 19 21 24 24 23 22 21
18 18 18 17 15 12 9 9 10 11 13 14 11 11 17 20 20 19 20 22 23 23 23 23 23 24 24 24 24 24 25 26 27 28 31 32 33 34 35 35 34 31 27 26 26 25 24 24 23 23 26 29 30 30 30 31 33 35 35 34 33 31 30 26 21 20 19 19 19 19 18 18 18 18 19 19 19 19 19 19 20 21 22 23 22
18 18 18 18 17 14 10 8 8 9 10 12 12 14 16 17 19 23 26 25 23 22 22 22 23 24 25 25 25 26 26 26 27 29 32 34 35 35 36 36 36 35 32 29 26 25 23 23 23 23 25 27 28 28 28 29 31 32 32 32 31 32 33 29 24 22 21 21 21 21 20 20 20 19 19 19 18 18 19 19 19 20 21 22 22
17 18 18 18 18 17 13 9 8 8 9 9 10 14 17 16 18 23 25 25 25 24 22 22 23 23 23 24 25 26 26 26 26 28 31 34 37 38 38 38 38 38 38 34 30 27 25 24 22 22 24 27 27 27 29 30 30 30 30 29 29 32 33 30 25 24 24 23 23 22 21 21 21 21 20 19 19 18 18 19 19 19 20 21 22
16 17 18 19 19 18 14 9 7 7 9 9 9 11 13 16 20 23 24 25 26 26 23 23 24 23 23 23 24 25 25 24 24 26 28 32 36 38 39 39 39 39 40 39 35 31 28 27 24 23 24 26 27 28 30 31 30 29 29 29 30 32 32 28 25 25 25 24 23 22 22 21 21 21 21 21 21 20 19 19 20 19 19 20 20
16 16 17 18 19 18 16 13 9 6 7 8 9 11 11 13 19 23 25 26 25 25 24 24 24 23 22 22 23 24 25 24 24 25 26 28 33 37 39 41 41 41 42 42 41 39 35 33 32 30 29 28 28 29 29 29 29 30 30 31 33 33 30 27 25 25 24 23 22 23 22 21 20 21 22 22 22 22 21 21 21 20 19 18 19
15 15 15 17 18 17 18 16 12 8 5 6 8 10 11 12 16 20 23 22 21 22 22 22 23 22 20 19 20 21 20 21 24 26 26 27 28 30 33 37 37 37 38 38 37 37 35 33 33 32 30 28 26 25 25 25 24 26 27 29 32 33 32 29 27 25 25 24 23 23 23 22 22 22 22 22 23 22 22 21 21 21 19 18 19
14 15 14 14 16 17 18 17 15 10 6 5 7 9 11 13 17 20 23 22 19 18 18 20 23 23 21 23 24 21 20 23 26 28 29 28 25 23 24 27 28 28 29 29 29 29 27 26 26 25 24 24 23 23 23 22 22 23 23 24 25 27 28 28 27 27 26 25 25 25 23 23 23 23 22 23 23 22 21 21 22 21 18 17 19
14 14 14 13 14 16 17 17 16 14 9 5 5 8 11 13 15 19 23 24 24 21 19 20 21 20 22 27 29 27 27 29 29 29 32 34 29 25 23 23 23 23 22 22 26 28 25 23 24 23 22 22 23 24 23 23 22 23 23 23 24 24 25 26 27 27 26 25 25 25 24 24 24 23 23 23 22 21 20 21 22 21 19 19 22
15 14 13 13 14 16 17 17 17 17 14 9 6 7 10 13 14 16 18 19 20 21 22 22 22 21 22 26 28 29 31 31 30 30 33 36 32 30 28 25 24 23 20 19 23 27 27 24 24 24 24 24 25 26 25 24 24 24 24 24 25 25 25 25 25 25 25 25 25 25 26 25 25 25 24 23 23 21 21 21 21 22 22 22 23
16 15 15 15 15 16 18 18 18 17 17 15 10 6 8 12 15 15 14 15 17 19 22 23 22 21 22 23 25 28 32 32 32 33 36 37 36 32 29 27 26 26 24 22 23 26 26 25 24 23 23 24 25 26 26 25 25 24 23 24 25 25 26 26 25 24 25 25 25 25 26 26 25 24 24 23 22 20 20 20 21 21 23 25 25
16 16 16 16 16 17 18 19 18 16 17 19 16 9 6 9 15 17 17 17 16 15 16 18 19 20 21 22 21 23 26 31 36 39 40 39 36 31 28 26 25 25 26 28 26 24 23 23 23 23 23 23 24 24 24 25 25 25 24 24 25 25 26 26 26 26 27 27 26 26 25 25 24 23 23 22 21 18 19 22 23 22 23 26 26
15 16 16 16 16 17 18 18 18 16 16 18 19 13 7 6 11 16 18 18 17 14 13 14 15 17 20 22 22 22 22 24 32 40 44 41 36 30 27 25 23 23 26 29 26 23 22 22 21 21 22 23 23 22 21 22 23 24 25 26 26 25 25 25 26 28 29 29 27 26 25 24 23 22 23 22 20 19 22 25 24 23 24 26 26
14 15 15 15 16 16 17 17 17 17 15 16 19 17 11 7 8 12 14 15 17 17 16 15 15 16 19 22 23 23 22 20 22 28 35 38 36 31 27 24 21 20 23 25 23 21 21 22 22 22 22 23 23 23 22 22 22 23 25 26 27 27 27 27 27 29 30 29 27 25 25 24 24 25 25 23 21 22 24 25 24 23 24 26 26
14 14 14 14 15 15 16 16 17 17 16 15 18 20 16 9 6 9 12 13 14 15 16 16 16 17 18 18 20 21 20 18 17 18 22 27 29 29 27 24 20 18 22 27 27 24 22 21 22 23 24 24 24 24 25 25 25 26 27 28 28 28 28 28 28 29 29 28 27 26 25 25 25 26 26 25 24 24 24 24 24 23 22 23 24
14 13 13 13 14 14 14 15 17 18 17 15 16 18 18 13 7 6 10 13 14 14 15 15 15 16 15 15 15 17 18 18 17 16 16 19 22 25 27 25 20 17 20 24 25 24 23 22 23 24 25 25 25 25 25 26 26 27 27 28 28 29 30 29 29 29 28 27 27 27 26 25 26 27 27 26 26 24 24 25 25 24 23 24 24
14 14 13 13 14 14 14 14 16 16 16 14 14 15 18 16 11 7 8 11 14 15 15 14 14 14 14 13 14 15 17 19 19 19 18 17 18 22 27 27 23 21 22 23 22 22 23 23 24 25 26 27 27 26 26 26 26 27 27 26 27 29 31 31 30 30 29 28 28 27 27 28 29 29 29 29 29 27 26 26 25 24 23 24 24
14 14 14 13 14 14 14 14 14 15 14 13 13 13 15 17 15 10 8 9 13 14 14 13 12 12 13 15 18 20 21 20 18 18 18 18 18 21 24 24 22 21 22 23 22 22 22 23 24 25 27 28 28 27 27 27 27 28 27 26 26 29 30 31 31 31 31 31 30 28 28 30 31 30 29 30 30 29 28 28 27 25 24 24 25
13 13 13 12 13 13 12 12 13 14 14 13 12 12 12 14 16 14 11 9 12 14 14 13 12 12 13 17 22 25 25 23 20 18 17 16 17 19 21 23 23 22 22 22 23 23 23 23 23 24 25 27 27 27 28 28 28 28 27 28 28 29 29 30 31 30 30 31 31 29 28 29 29 29 30 31 29 28 28 28 27 27 26 24 24
13 13 13 12 12 12 12 12 12 12 13 13 12 11 11 12 13 14 13 11 11 13 14 13 12 12 14 17 20 22 23 22 20 19 17 15 14 14 15 16 18 20 21 21 21 22 23 24 25 25 25 25 25 25 26 26 25 25 26 28 28 28 28 30 31 31 30 29 30 30 30 29 28 29 31 33 32 31 30 29 27 27 27 26 25
13 13 13 12 12 11 11 11 11 11 12 13 12 12 11 11 12 13 13 12 11 11 12 13 12 11 12 16 19 20 19 16 15 15 16 16 14 12 11 10 10 11 13 14 15 16 18 19 20 21 21 21 21 21 23 25 26 27 28 28 28 27 28 30 32 32 30 30 31 32 32 29 28 31 34 34 33 34 35 33 29 27 27 28 28
14 15 14 12 11 11 11 10 10 10 10 11 12 12 12 11 11 11 11 12 11 11 11 12 12 11 10 13 16 16 14 13 13 13 14 14 13 13 12 12 11 11 11 11 12 13 14 16 17 17 18 18 18 18 19 21 24 26 27 27 26 27 31 35 35 33 31 31 32 31 30 28 30 33 35 34 33 33 35 33 29 28 27 26 26
14 15 14 13 12 11 10 9 8 8 9 10 11 12 11 10 10 10 10 10 11 11 11 11 11 10 9 10 12 12 12 11 12 12 12 12 12 12 12 13 13 13 13 13 13 13 14 15 17 18 20 21 21 21 21 21 22 23 23 23 23 25 28 32 33 32 30 30 29 29 29 31 33 34 35 35 34 34 35 33 29 27 26 23 22
14 14 13 13 12 11 9 8 7 7 8 9 9 10 10 10 9 9 8 8 9 10 10 9 9 8 7 7 8 10 10 11 11 12 12 12 12 11 11 12 12 12 12 12 12 12 13 14 15 17 19 20 21 23 23 24 25 25 24 24 25 25 25 26 27 26 26 26 27 30 34 36 36 34 34 33 32 32 31 30 27 26 24 24 25
13 13 13 13 12 10 8 7 7 6 6 7 8 9 9 9 8 7 7 7 7 8 8 9 8 7 6 7 7 8 9 10 10 10 11 11 12 11 11 10 10 10 10 10 10 10 10 10 11 12 14 15 17 19 21 22 24 25 26 26 28 29 30 31 31 30 28 27 26 28 33 36 37 36 34 32 31 30 29 29 29 28 27 26 27
11 12 12 12 11 10 8 7 6 6 6 6 7 7 8 9 8 7 6 6 5 5 6 7 8 6 6 7 7 8 8 8 8 8 9 10 10 10 10 9 8 8 8 8 8 7 7 7 8 8 9 11 11 13 15 17 19 21 23 24 27 29 32 35 36 37 37 36 32 30 30 33 36 38 37 35 34 34 33 32 32 31 29 27 25
10 10 11 10 10 9 8 7 5 5 4 5 5 6 7 8 8 6 6 5 5 5 5 6 7 7 8 8 7 7 7 7 8 8 8 9 9 9 9 9 8 8 8 8 8 8 8 8 8 8 8 8 8 9 10 12 14 16 18 19 22 24 27 30 33 35 36 37 36 33 31 32 35 38 40 39 38 36 33 30 28 28 28 25 22
9 9 9 9 8 8 7 6 5 4 3 3 4 5 6 6 7 6 6 5 5 5 6 6 7 7 7 7 6 6 6 7 8 8 8 8 9 9 9 8 8 8 8 8 9 10 10 10 11 11 11 12 13 13 12 12 11 11 12 15 17 20 21 24 26 28 30 32 32 30 28 30 34 37 40 40 37 33 29 26 25 25 25 23 22
8 8 7 7 7 6 6 5 4 3 1 1 2 3 4 5 6 6 5 4 5 5 5 6 6 6 7 7 7 7 8 9 9 8 8 8 8 9 9 9 9 9 9 10 11 11 11 11 12 12 12 12 13 15 15 16 15 12 10 10 12 15 17 18 19 20 20 21 23 24 23 23 25 28 29 27 25 25 27 27 26 25 24 24 24
7 6 5 5 5 5 5 4 3 2 1 0 1 2 2 3 4 4 4 4 4 4 5 5 6 6 7 8 8 8 9 8 8 8 8 8 9 9 9 10 10 10 11 12 14 14 14 14 13 13 15 16 16 17 19 20 18 15 12 10 9 8 8 9 11 12 11 10 10 11 8 4 3 7 12 14 16 18 20 23 26 27 28 28 27
Wind_Direction
197 198 199 200 200 200 202 206 208 210 211 212 213 215 215 217 218 217 216 216 216 216 218 221 220 219 218 216 215 215 216 218 218 218 220 220 222 227 223 216 219 223 225 228 230 224 219 219 220 220 220 222 226 228 228 227 227 234 240 247 256 256 254 270 283 293 300 303 305 312 322 323 318 318 322 323 325 330 330 325 325 331 337 337 322
198 197 197 198 199 201 203 205 206 207 210 212 214 216 217 218 218 217 217 216 216 215 215 217 219 219 219 217 215 216 216 217 218 219 221 222 222 226 226 223 224 226 226 228 228 227 224 221 220 218 218 221 226 231 233 235 235 236 240 248 257 259 254 260 274 285 290 294 298 302 310 314 313 317 317 318 322 323 323 322 322 321 325 334 325
199 198 197 197 199 200 201 203 205 205 208 212 216 218 219 218 217 217 218 217 216 216 216 215 215 216 218 218 216 218 218 219 221 221 223 224 224 227 227 225 226 227 226 226 226 225 225 225 225 222 220 221 226 233 236 239 244 247 249 254 260 265 263 259 262 273 284 290 293 297 303 306 307 309 309 310 313 313 315 312 309 312 315 321 321
200 197 198 199 199 200 201 202 204 205 208 212 215 218 218 217 217 217 218 218 217 217 216 215 213 212 215 217 216 219 221 221 222 222 223 225 226 227 228 226 227 228 228 227 226 226 226 226 228 228 226 226 228 233 237 237 240 244 249 252 255 258 260 257 256 263 275 283 284 289 295 296 295 298 301 305 304 301 303 301 296 297 304 312 316
203 200 201 202 201 201 202 204 206 207 209 211 214 216 217 216 216 216 218 218 217 217 215 213 212 212 214 217 218 220 222 222 222 222 222 224 226 227 229 228 229 230 231 230 229 228 229 230 231 230 229 230 231 235 238 237 237 240 244 246 248 251 253 253 255 258 265 275 281 284 285 284 284 286 288 293 300 300 297 294 289 285 291 307 317
208 205 205 205 203 203 204 206 208 208 209 212 214 214 216 216 216 216 216 217 217 217 216 213 212 213 217 220 219 220 222 222 222 222 222 224 227 229 231 231 232 233 233 234 232 231 232 233 234 233 232 233 234 236 236 234 236 239 240 242 243 245 249 251 253 255 259 266 275 278 278 277 277 280 278 277 288 295 295 294 288 279 280 295 310
208 207 208 208 206 206 207 207 209 210 210 213 214 214 215 216 216 217 216 216 217 217 217 216 213 215 219 222 221 221 221 221 223 224 225 225 226 229 232 234 236 237 237 238 237 237 237 236 236 235 234 235 235 236 235 235 237 239 237 237 239 241 245 249 250 252 256 261 268 271 274 274 273 275 275 272 277 282 282 285 288 285 283 285 294
206 206 208 210 210 209 210 211 210 211 211 212 214 215 215 216 217 217 217 217 218 219 219 218 217 217 219 221 222 222 222 222 223 225 227 228 228 230 232 235 238 240 242 243 243 244 244 243 243 241 238 237 236 235 235 234 236 239 237 234 233 236 242 247 249 250 253 259 264 267 270 271 270 274 275 269 269 272 271 278 285 289 290 286 286
209 206 205 210 213 212 211 211 211 211 211 211 213 214 215 215 215 216 216 217 219 220 221 221 220 220 219 219 220 220 222 223 223 225 227 228 229 231 232 234 237 240 243 245 247 248 248 249 248 246 242 240 238 237 237 237 236 238 237 234 234 235 238 244 247 248 251 255 258 262 264 264 263 267 269 267 269 273 273 275 278 282 288 289 287
218 216 212 213 216 214 210 210 210 209 209 210 212 214 214 215 215 215 215 217 218 219 221 222 223 223 221 219 218 219 222 224 226 229 230 229 228 230 232 232 234 238 241 244 248 249 250 252 252 251 247 244 244 247 249 249 247 245 241 235 234 235 238 242 243 244 247 251 254 257 259 261 263 265 270 273 275 275 274 273 276 282 289 288 287
229 227 225 222 218 214 213 211 210 209 209 210 211 213 214 215 215 215 215 217 217 217 218 221 224 226 225 223 221 222 224 226 230 235 238 237 232 229 230 232 233 236 240 243 246 250 252 252 252 251 248 245 247 253 257 258 255 251 247 242 237 234 235 240 244 245 246 249 253 256 258 262 264 266 271 276 277 275 274 275 277 281 285 286 289
245 238 237 234 224 217 215 214 211 209 209 210 211 212 213 214 215 216 217 218 218 217 218 220 223 226 228 228 227 228 229 229 233 238 242 243 241 236 233 235 237 238 241 243 246 249 251 251 250 248 246 243 243 248 256 259 257 254 251 250 246 242 239 239 242 244 247 252 254 255 257 262 264 264 268 275 278 276 274 274 274 277 279 281 283
267 255 249 244 236 226 219 215 214 212 211 211 212 213 214 215 217 219 221 222 220 220 221 221 223 225 227 229 230 232 234 232 235 240 244 246 247 244 239 238 240 241 242 244 245 246 247 247 247 245 243 242 239 238 243 252 258 258 255 254 252 250 246 243 242 242 245 252 256 256 255 257 260 262 263 265 269 270 272 272 270 271 274 277 278
293 283 269 253 242 236 230 223 218 216 215 213 212 214 216 218 220 223 225 224 222 223 224 224 223 224 225 227 229 232 235 234 234 240 244 246 248 247 243 239 240 242 242 243 244 245 244 243 242 241 239 236 235 233 234 239 247 253 255 255 254 253 252 250 247 243 242 244 249 252 252 250 252 257 258 255 256 260 265 269 270 271 273 275 277
317 310 297 272 250 242 240 236 228 222 218 214 213 216 218 221 223 225 226 225 223 224 225 225 224 225 226 227 228 231 234 234 234 237 243 246 247 246 244 240 239 240 240 240 241 241 240 239 239 239 237 233 231 232 233 233 235 239 243 246 248 248 248 248 248 246 242 241 244 247 248 248 250 253 254 253 254 256 259 263 268 270 270 271 273
340 329 319 304 282 260 249 244 239 232 224 216 214 217 218 220 222 223 226 229 229 228 227 226 225 226 227 226 227 232 235 235 235 237 241 244 244 243 242 240 237 238 238 238 237 237 237 237 236 237 236 233 231 234 235 234 234 236 238 239 241 242 242 242 243 244 243 241 242 245 246 246 246 246 247 249 251 255 262 266 265 263 262 266 268
353 342 332 323 312 296 275 257 244 238 231 221 218 219 219 220 221 220 223 227 230 231 230 229 228 228 228 227 227 231 236 236 237 239 241 242 240 239 238 236 235 236 236 236 235 235 234 234 233 234 235 234 233 235 239 238 234 235 238 240 242 244 244 244 244 246 247 246 245 246 247 248 247 246 247 250 251 253 258 260 258 257 258 260 263
352 344 335 327 317 307 302 288 258 242 237 230 226 224 222 223 223 220 221 225 230 232 233 233 232 231 232 231 229 232 236 238 238 240 242 241 240 238 234 232 233 235 235 235 234 234 234 235 234 233 233 234 234 236 239 238 234 232 235 238 241 244 244 244 245 247 248 249 248 248 249 250 250 250 250 252 251 247 247 248 249 254 256 256 261
343 337 330 326 321 311 307 305 288 260 245 238 234 231 228 228 227 223 223 227 230 231 233 235 236 235 235 236 234 234 238 240 240 241 241 241 240 237 231 228 232 234 234 234 233 233 234 236 237 236 235 234 234 235 238 237 232 229 232 236 239 242 243 243 245 245 241 237 239 244 249 252 253 253 253 253 249 242 240 242 244 248 253 255 260
334 328 323 321 324 320 308 300 299 291 268 249 242 238 234 231 229 226 227 230 232 232 231 233 236 237 237 239 238 236 237 239 240 240 241 241 239 235 228 225 231 234 234 235 235 234 234 234 237 240 240 239 238 237 238 239 235 230 230 234 237 240 242 243 244 245 242 237 237 242 248 252 253 254 254 252 247 241 240 240 238 239 244 250 254
328 325 323 321 322 325 316 299 293 295 293 278 259 249 245 240 235 231 230 232 233 234 235 234 236 237 237 238 239 238 238 239 238 239 240 240 240 235 227 222 227 232 234 235 235 235 235 233 233 238 242 244 243 241 240 241 240 235 231 233 236 238 241 245 245 244 245 246 247 246 245 245 246 247 247 245 242 240 240 240 237 234 236 242 247
326 322 320 318 317 319 319 312 301 290 292 299 288 260 251 251 249 244 244 244 242 241 241 239 238 238 238 238 239 239 240 240 238 238 238 239 239 237 231 226 225 228 232 235 236 237 237 235 233 234 238 244 246 245 243 243 243 241 240 240 240 239 240 245 250 250 248 249 249 247 245 245 245 245 245 243 241 238 236 237 236 233 234 238 243
328 322 318 316 314 311 311 319 320 305 295 295 284 255 248 250 246 241 242 245 245 244 243 242 241 241 240 240 240 240 241 242 240 238 237 237 237 238 238 234 229 226 230 235 236 237 238 238 237 235 237 242 246 247 247 245 244 245 247 247 247 246 245 245 249 253 252 251 250 247 244 244 244 243 242 241 242 239 234 234 235 232 234 238 241
331 324 318 316 314 311 310 318 325 321 311 297 271 252 253 254 246 238 238 241 244 245 243 242 244 245 244 243 242 241 242 244 244 241 238 236 236 237 240 240 235 229 230 234 237 238 239 240 240 237 238 242 245 248 250 249 247 248 250 250 250 250 248 245 247 250 249 247 247 245 243 242 241 241 239 237 237 237 235 235 236 235 237 240 242
332 327 320 317 316 313 310 313 319 317 316 310 282 260 257 256 251 245 241 241 243 242 240 241 243 244 246 246 245 244 244 244 244 244 241 238 237 238 240 241 239 234 231 232 235 236 237 239 239 238 239 242 245 248 249 250 250 251 252 253 251 248 245 242 242 244 244 242 241 241 240 239 238 238 238 236 237 236 234 234 237 239 241 244 246
326 326 322 316 314 313 310 307 311 311 308 311 306 287 268 257 252 247 240 237 239 240 241 243 244 245 247 247 248 249 249 248 246 245 243 239 237 238 240 241 241 238 235 234 235 234 235 236 237 239 241 242 244 246 248 251 253 253 252 251 248 244 241 237 235 236 237 238 237 237 238 238 238 237 234 234 236 236 234 234 237 239 241 243 247
318 322 323 317 311 310 310 310 311 312 313 311 309 307 297 275 262 254 246 242 242 244 245 247 249 251 252 252 253 254 253 252 248 245 241 237 235 236 237 238 238 237 235 234 235 235 235 236 239 240 241 243 245 247 249 251 252 251 249 247 244 241 237 233 232 233 234 235 235 236 238 238 237 236 232 231 233 234 233 234 237 239 239 241 246
312 313 317 317 311 308 310 312 311 311 320 319 309 308 307 297 284 271 261 255 253 252 253 254 255 256 258 258 257 256 256 256 253 249 244 237 231 229 230 232 234 235 235 236 238 238 237 237 239 239 239 239 242 243 243 242 240 241 241 240 241 241 238 234 233 233 234 234 236 237 238 237 237 237 235 234 234 234 233 233 235 237 238 240 244
308 307 309 311 310 309 309 310 310 309 311 312 305 298 292 291 290 285 279 278 280 281 281 275 268 264 263 261 257 251 248 251 254 258 259 252 235 220 221 228 232 236 242 246 248 247 243 238 236 235 232 231 233 234 234 232 229 229 229 229 231 234 232 229 229 230 230 230 233 235 235 236 236 236 235 235 237 237 235 234 236 237 236 237 243
304 304 305 305 307 310 309 307 309 309 306 303 305 300 291 288 289 287 284 283 286 291 293 288 283 279 272 264 258 252 248 249 251 256 264 264 249 227 224 231 232 233 242 248 246 245 243 238 235 233 230 230 232 233 233 230 229 228 227 225 226 227 225 224 225 226 225 225 227 230 232 233 234 234 234 236 237 238 237 235 237 239 236 235 242
301 300 303 304 306 309 307 306 308 309 308 306 310 312 308 303 300 299 294 288 284 283 282 283 288 291 283 271 262 256 256 257 255 252 259 265 256 236 230 233 233 238 246 243 234 232 234 237 237 236 234 234 234 235 234 233 233 233 231 229 228 226 225 225 224 222 222 222 223 226 228 231 234 234 235 237 238 239 240 240 238 238 238 238 241
293 296 299 301 303 304 304 304 307 309 309 310 312 325 328 318 312 310 306 297 291 288 284 284 288 293 293 287 275 262 257 258 257 254 256 261 257 245 239 238 239 244 245 233 221 221 226 233 238 237 235 235 235 235 236 236 236 235 235 234 233 229 228 228 226 223 222 221 222 224 226 228 231 233 235 236 237 238 240 241 237 233 235 240 242
287 291 294 296 299 300 300 302 304 306 308 308 309 316 332 324 317 315 313 311 309 303 295 290 290 291 297 302 298 283 270 264 260 257 255 255 255 254 253 244 233 227 219 210 210 217 224 231 238 239 237 237 237 235 235 236 236 237 237 237 238 236 233 231 228 227 228 226 225 226 227 227 228 232 235 235 234 234 236 239 238 232 231 237 240
282 286 288 290 293 295 296 299 302 303 304 305 305 306 316 324 316 313 315 319 321 319 310 305 304 300 299 302 305 303 294 279 265 257 254 254 256 261 262 251 235 221 211 206 211 222 229 233 238 239 238 239 240 237 234 233 235 237 239 240 241 241 240 235 231 230 232 232 231 230 231 231 231 235 238 237 235 235 236 236 237 233 229 231 236
280 283 284 285 287 289 292 295 299 300 302 304 304 304 309 320 318 312 313 316 316 316 316 315 315 312 305 301 303 306 307 299 281 265 259 259 261 262 260 252 242 231 223 220 220 226 232 236 239 239 239 239 240 239 236 234 232 233 236 239 240 240 240 240 237 235 234 236 238 237 236 237 238 239 242 241 237 235 234 232 232 231 230 231 234
280 281 282 282 282 285 288 291 294 296 297 300 302 301 300 303 311 314 312 310 308 309 312 313 314 314 312 309 308 308 307 302 294 282 270 265 262 258 252 245 237 229 229 230 229 228 230 234 238 241 242 240 239 239 239 238 237 237 237 238 238 238 238 238 239 239 238 239 242 241 240 241 240 240 241 242 239 235 233 230 229 230 230 229 230
277 277 278 278 279 283 287 288 290 291 292 295 298 298 297 296 304 319 316 312 311 310 310 314 319 320 322 324 321 313 306 301 297 292 282 272 263 253 246 242 238 234 233 234 233 230 230 233 236 241 244 242 241 241 241 241 241 241 240 239 239 240 241 241 239 238 236 236 237 236 235 236 237 234 233 235 236 234 230 228 227 228 228 227 227
271 270 271 273 277 282 286 287 287 289 291 294 296 299 301 302 308 321 318 312 312 312 312 319 326 325 324 330 333 327 317 307 297 291 287 282 270 254 244 240 239 239 239 238 235 231 231 234 237 240 243 244 243 243 243 243 243 243 243 242 241 242 244 244 241 237 234 232 231 229 228 231 232 229 226 228 230 229 225 224 224 225 226 224 223
269 268 270 274 278 280 282 285 287 289 290 292 294 299 303 305 308 316 322 316 313 313 315 320 324 324 325 327 329 331 330 320 301 287 280 275 270 262 251 243 239 239 241 242 241 236 235 237 239 240 243 244 243 243 243 244 245 247 248 249 248 248 248 247 246 243 240 237 233 229 229 232 233 230 227 227 228 225 222 221 220 221 223 222 220
271 271 273 275 277 279 279 281 286 288 290 292 295 297 299 303 307 311 317 319 316 313 314 319 322 323 326 326 324 326 327 322 310 297 283 267 260 257 251 245 243 242 242 245 247 244 242 242 242 243 243 244 244 246 246 246 248 251 253 254 255 255 254 254 253 250 249 247 244 237 233 232 230 228 227 228 228 226 224 222 221 221 222 222 220
272 273 274 275 275 277 277 279 283 286 289 292 295 295 295 301 306 308 310 312 312 310 310 313 315 317 320 320 320 321 320 314 305 299 293 283 272 263 254 249 249 248 247 248 249 249 248 250 252 253 252 250 249 249 248 247 248 251 254 256 256 256 256 258 258 255 253 253 249 244 240 234 227 223 225 227 226 225 224 225 226 224 220 217 217
273 273 274 274 274 273 272 276 282 287 289 291 292 293 295 298 301 304 306 306 305 305 305 303 307 316 323 321 321 321 320 315 307 302 300 298 298 294 286 276 268 261 256 254 252 249 249 252 255 258 259 258 255 252 251 251 252 253 254 255 253 250 251 256 258 257 256 255 251 248 246 240 231 228 230 229 225 223 223 223 225 224 220 216 215
273 273 272 272 270 268 268 274 280 284 287 289 290 291 295 296 297 301 305 304 302 303 303 304 310 323 333 332 330 330 330 327 323 319 313 308 306 305 302 296 288 281 276 269 262 257 254 251 250 252 253 253 252 251 253 255 256 258 259 258 255 252 252 255 257 258 256 255 255 254 252 245 237 233 233 230 226 223 222 220 219 220 220 216 211
274 272 271 269 265 262 263 267 272 277 282 287 289 289 289 289 291 295 299 304 308 307 305 307 315 324 333 339 340 342 343 341 338 336 333 328 324 320 315 310 304 298 292 285 279 275 272 267 262 259 258 256 254 253 253 254 254 256 258 259 258 258 257 258 260 261 259 256 254 252 249 246 241 236 233 231 227 223 221 218 213 212 212 210 204
273 269 267 266 263 260 259 258 261 269 278 283 286 286 284 284 287 290 294 302 310 310 308 308 311 318 334 348 349 347 348 349 349 348 346 344 343 339 331 324 318 312 305 299 293 288 283 279 276 272 269 268 265 262 261 260 259 259 259 260 261 262 260 259 261 263 265 265 259 249 244 243 241 238 234 230 226 224 223 220 213 207 205 202 197
272 270 269 266 263 261 259 256 256 263 271 276 281 284 284 283 283 287 293 302 308 311 313 312 312 319 344 0 355 348 348 352 356 356 353 351 351 349 343 339 333 325 320 315 310 305 298 292 288 285 282 280 278 275 273 270 269 268 267 266 267 266 264 263 262 261 263 268 269 259 247 239 236 234 233 230 228 228 229 226 220 213 206 198 192
271 272 270 268 265 261 258 256 255 258 265 273 279 283 285 286 287 289 296 305 313 320 320 315 316 334 5 12 1 350 348 354 2 4 358 353 353 353 353 355 354 349 347 344 338 334 331 325 319 313 307 303 300 295 290 287 286 285 283 279 277 275 272 269 269 268 266 267 269 267 256 241 233 232 234 235 236 235 233 227 220 213 204 194 190
274 274 273 272 269 264 260 257 255 255 263 276 284 288 291 293 295 299 304 312 321 330 331 328 332 352 13 15 1 350 350 358 8 12 7 360 357 358 3 8 12 16 22 25 27 33 36 34 30 26 17 6 358 346 333 324 315 309 305 299 293 289 284 279 277 276 273 269 267 268 265 255 243 237 237 240 242 239 233 224 214 205 197 191 186
278 278 277 277 275 271 268 264 259 257 264 278 288 296 302 303 303 307 314 325 332 338 342 345 350 3 17 18 5 359 5 13 18 21 18 11 5 6 12 20 25 30 37 42 47 51 53 52 52 52 51 50 49 45 37 29 16 356 339 326 315 308 301 293 286 282 279 274 267 263 263 262 255 248 245 245 243 236 225 214 202 190 181 171 162
282 281 284 283 280 278 279 275 268 263 271 293 300 306 310 312 311 314 322 336 347 352 354 357 1 10 19 22 21 23 27 29 28 27 28 26 23 21 22 28 36 42 47 53 57 57 55 53 53 53 51 51 51 52 53 52 49 45 33 7 340 323 312 304 295 287 281 275 265 256 257 264 265 256 248 241 230 213 200 190 179 167 153 141 135
289 289 293 293 290 286 286 285 283 281 288 63 33 356 335 324 321 325 338 356 8 11 12 16 21 26 29 32 35 37 38 38 37 36 36 37 36 34 32 34 40 44 48 53 56 56 54 51 49 50 52 51 48 48 50 50 47 46 49 50 40 17 348 324 307 292 276 260 248 241 239 246 248 221 202 183 166 159 155 151 144 134 125 119 118